Location: Unspecified
(44.0704°N, 88.6889°W)
Time: 11:13:24
(UTC+02:00)

Vanguard 2 Rocket - Pass Details

Date: 16 August 2020
Orbit: 554 x 3326 km, 32.9° (Epoch: 22 September)

Event Time Altitude Azimuth Distance (km) Brightness Sun altitude
Rises 06:56:36 0° 260° (W) 4,993 10.8 -30.6°
Reaches altitude 10° 07:02:11 10° 236° (SW) 4,590 10.3 -30.9°
Enters shadow 07:05:06 13° 223° (SW) 4,631 10.2 -31.0°
